Regional Weather Roundup
Issued by NWS Mt. Holly, NJ

Home | Current Version | Previous Version | Text Only | Print | Product List | Glossary On
Versions: 1 2 3 4 5 6 7 8 9 10 11 12 13 14 15 16 17 18 19 20 21 22 23 24 25 26 27 28 29 30 31 32 33 34 35 36 37 38 39 40 41 42 43 44 45 46 47 48 49 50
000
ASUS41 KPHI 231212
RWRPHI

REGIONAL WEATHER ROUNDUP
NATIONAL WEATHER SERVICE MOUNT HOLLY NJ
800 AM EDT WED AUG 23 2017

NOTE:  "FAIR" INDICATES FEW OR NO CLOUDS BELOW 12,000 FEET WITH NO
SIGNIFICANT WEATHER AND/OR OBSTRUCTIONS TO VISIBILITY.

 * = STATION DOES NOT REPORT PRECIPITATION (E.G. RAIN, SNOW, ETC.)
        OR FOG.

NJZ015>026-231300-
SOUTHERN NEW JERSEY

CITY           SKY/WX    TMP DP  RH WIND       PRES   REMARKS
POMONA         CLOUDY    77  73  87 W7        29.81S
6HR MIN TEMP:  74; 6HR MAX TEMP:  80; 6HR PCP:  0.01;

WILDWOOD*      MOSUNNY   79  72  79 NW6       29.82S
MILLVILLE      PTSUNNY   77  75  93 W6        29.82R
WRIGHTSTOWN    LGT RAIN  73  73 100 W6        29.79R
MOUNT HOLLY    PTSUNNY   75  74  96 W3        29.81R
TRENTON        CLOUDY    74  71  91 NW6       29.82R
6HR MIN TEMP:  73; 6HR MAX TEMP:  74;


$$
NJZ001>014-231300-
NORTHERN NEW JERSEY

CITY           SKY/WX    TMP DP  RH WIND       PRES   REMARKS
SUSSEX         PTSUNNY   69  61  75 N6        29.85R
ANDOVER*         N/A     68  59  73 VRB7      29.86R
MORRISTOWN     PTSUNNY   70  63  78 MISG      29.82R
NEWARK         CLOUDY    75  72  90 W7        29.80R
TETERBORO      CLOUDY    75  68  78 N10       29.79R
CALDWELL       CLOUDY    71  67  87 VRB5      29.82R
SOMERVILLE     CLOUDY    72  68  87 NW8       29.80R
ALLAIRE*       CLOUDY    74  72  93 W7        29.82R

$$
PAZ043-044-047-054-055-060>062-066>071-231300-
EASTERN PENNSYLVANIA

CITY           SKY/WX    TMP DP  RH WIND       PRES   REMARKS
PHILADELPHIA   CLOUDY    76  71  85 W5        29.83R
6HR MIN TEMP:  75; 6HR MAX TEMP:  77; 6HR PCP:  0.02;

NORTH PHILA    CLOUDY    76  70  82 NW6       29.83R
BLUE BELL*     CLOUDY    72  70  94 CALM      29.85R
DOYLESTOWN     CLOUDY    72  70  93 VRB5      29.83R
QUAKERTOWN*    MOSUNNY   70  59  68 N9        29.86R
PERKASIE*      PTSUNNY   70  70 100 N6        29.86R
POTTSTOWN      PTSUNNY   72  70  93 NW6       29.86R
LANCASTER      CLOUDY    73  68  84 NW8       29.86R
COATESVILLE    PTSUNNY   72  68  88 N7        29.87R
READING        MOSUNNY   71  69  93 N6        29.85R
6HR MIN TEMP:  71; 6HR MAX TEMP:  74; 6HR PCP:  0.01;

ALLENTOWN      MOSUNNY   69  56  62 NW12      29.85R
6HR MIN TEMP:  68; 6HR MAX TEMP:  75; 6HR PCP: TRACE;

MOUNT POCONO   MOSUNNY   61  55  81 NW12G20   29.88S
6HR MIN TEMP:  60; 6HR MAX TEMP:  68;

HAZLETON         N/A     66  52  59 W5        29.93R
LEHIGHTON      FAIR      68  55  64 N3        29.87R
WILKES BARRE   MOSUNNY   67  56  67 NW5       29.89R

$$
DEZALL-MDZ008-012-015-019-020-231300-
DELAWARE AND EASTERN MARYLAND

CITY           SKY/WX    TMP DP  RH WIND       PRES   REMARKS
WILMINGTON     CLOUDY    75  72  90 W6        29.84R
6HR MIN TEMP:  74; 6HR MAX TEMP:  75; 6HR PCP: TRACE;

DOVER          PTSUNNY   77  72  83 W8        29.81R
GEORGETOWN     MOSUNNY   80  73  79 NW5       29.83R
6HR MIN TEMP:  77; 6HR MAX TEMP:  81;

ABERDEEN       PTSUNNY   74  72  92 CALM      29.85R
PATUXENT       MOSUNNY   78  71  79 W8        29.84R
OCEAN CITY     SUNNY     80  77  90 W6        29.83R
WALLOPS ISLAND MOSUNNY   81  76  84 W6        29.83S
CAMBRIDGE      PTSUNNY   79  72  78 VRB3      29.84R
SALISBURY      SUNNY     79  77  94 W5        29.82S

$$
PAZ001-021-NYZ056-072-MDZ011-DCZ001-231300-
OTHER NEARBY LOCATIONS

CITY           SKY/WX    TMP DP  RH WIND       PRES   REMARKS
HARRISBURG     MOSUNNY   74  64  71 NW8       29.85R
STATE COLLEGE  MOSUNNY   63  57  82 CALM      29.92S
WILLIAMSPORT   CLOUDY    64  59  83 CALM      29.88R
BINGHAMTON     SUNNY     57  53  86 W7        29.88R
NEW YORK CITY  CLOUDY    74  70  87 VRB3      29.83R
BALTIMORE      PTSUNNY   75  70  84 NW7       29.84R
WASHINGTON DC  MOSUNNY   78  69  73 NW8       29.85R

$$



USA.gov is the U.S. government's official web portal to all federal, state and local government web resources and services.